Home   Weather   Richmond   Past weeks

Flag for USA Past Weather in Richmond, Virginia, USA — Yesterday and Last 2 Weeks

Now
51 °F

Fog.


Feels Like: 48 °F
Forecast: 48 / 52 °F
Wind: 8 mph from Northeast

Location: Richmond International Airport

Current Time: Jan 22, 2017 at 3:54:47 pm

Latest Report: Jan 22, 2017 at 3:21 pm


Visibility: 4 mi

Pressure: 29.59 "Hg

Humidity: 100%

Dew Point: 51 °F

Location of RichmondLocation

Past Weather in Richmond — Graph

°F

Richmond Temperature Yesterday

Maximum temperature yesterday: 50 °F (at 3:25 pm)
Minimum temperature yesterday: 46 °F (at 7:54 am)
Average temperature yesterday: 48 °F

High & Low Weather Summary for the Past Weeks

 TemperatureHumidityPressure
High70 °F (Jan 12, 1:54 pm)100% (Jan 11, 1:54 am)30.85 "Hg (Jan 11, 1:54 am)
Low1 °F (Jan 9, 6:54 am)38% (Jan 18, 2:54 pm)29.54 "Hg (Jan 22, 1:12 pm)
Average42 °F81%30.25 "Hg
* Reported Jan 7 2:54 pm — Jan 22 2:27 pm, Richmond, Weather by CustomWeather, © 2017

Note: Actual official high and low records may vary slightly from our data, if they occured in-between our weather recording intervals... More about our weather records

Advertising

Richmond Weather History for the Previous 24 Hours

Scroll right to see more
 ConditionsComfort  
Time TempWeatherWind HumidityBarometerVisibility
2:27 pm
Sun, Jan 22
51 °FLight rain. Fog.8 mph100%29.58 "Hg2 mi
1:54 pm50 °FLight rain. Fog.7 mph100%29.62 "Hg2 mi
1:12 pm50 °FFog.9 mph100%29.54 "Hg5 mi
12:54 pm50 °FFog.8 mph100%29.57 "Hg2 mi
11:54 am49 °FFog.6 mph100%29.65 "Hg4 mi
10:54 am49 °FFog.7 mph100%29.66 "Hg3 mi
10:37 am49 °FFog.8 mph100%29.67 "Hg1 mi
9:54 am49 °FFog.12 mph100%29.70 "Hg1 mi
9:07 am48 °FFog.7 mph100%29.70 "Hg0 mi
7:54 am48 °FFog.6 mph100%29.69 "Hg1 mi
7:27 am48 °FFog.7 mph100%29.66 "Hg1 mi
6:54 am48 °FFog.3 mph100%29.67 "Hg6 mi
5:54 am48 °FLow clouds.9 mph100%29.64 "Hg10 mi
4:54 am49 °FLow clouds.9 mph100%29.67 "Hg9 mi
3:54 am49 °FFog.5 mph100%29.67 "Hg4 mi
3:33 am49 °FFog.7 mph100%29.66 "Hg1 mi
2:54 am49 °FLight rain. Fog.10 mph100%29.67 "Hg1 mi
2:17 am49 °FLight rain. Fog.9 mph100%29.68 "Hg1 mi
1:54 am49 °FHeavy rain. Fog.9 mph100%29.67 "Hg1 mi
1:12 am49 °FRain. Fog.7 mph100%29.67 "Hg1 mi
12:54 am49 °FRain. Fog.8 mph100%29.68 "Hg1 mi
11:54 pm
Sat, Jan 21
49 °FRain. Fog.9 mph100%29.72 "Hg1 mi
11:19 pm49 °FHeavy rain. Fog.9 mph100%29.73 "Hg1 mi
10:54 pm49 °FLight rain. Fog.8 mph100%29.75 "Hg2 mi
10:22 pm49 °FLight rain. Fog.7 mph100%29.74 "Hg1 mi
9:54 pm50 °FLight rain. Fog.6 mph100%29.76 "Hg1 mi
8:54 pm50 °FLight rain. Fog.5 mph100%29.78 "Hg0 mi
7:54 pm50 °FDrizzle. Fog.3 mph100%29.79 "Hg0 mi
6:54 pm50 °FDrizzle. Fog.3 mph100%29.80 "Hg0 mi
5:54 pm50 °FFog.3 mph100%29.82 "Hg1 mi
5:36 pm50 °FFog.3 mph100%29.80 "Hg1 mi
4:54 pm50 °FFog.3 mph100%29.82 "Hg1 mi
3:54 pm50 °FFog.3 mph100%29.83 "Hg1 mi
3:25 pm50 °FFog.5 mph100%29.82 "Hg3 mi
Weather by CustomWeather, © 2017

See weather overviewHow to use our weather pages